FW5669 Weather Reports


time (UTC)temp
C
wind
direction
speed
KPH
gust
KPH
rain 1hr
cm
rain 24hr
cm
rain mn
cm
humidity
%
barometer
mb
20260902180005 19 122 1.6 6.4 0.00 0.00 0.00 61 1019.6
20260902174505 19 145 1.6 9.7 0.00 0.00 0.00 62 1019.6
20260902173002 18 157 3.2 6.4 0.00 0.00 0.00 62 1019.6
20260902171503 18 191 1.6 4.8 0.00 0.00 0.00 63 1019.4
20260902170002 18 143 1.6 6.4 0.00 0.00 0.00 63 1019.3
20260902164506 17 166 1.6 9.7 0.00 0.00 0.00 63 1019.3
20260902163002 17 62 4.8 11.3 0.00 0.00 0.00 60 1019.1
20260902161503 17 60 3.2 9.7 0.00 0.00 0.00 61 1019.1
20260902160002 17 116 3.2 12.9 0.00 0.00 0.00 62 1019.3
20260902154502 16 138 1.6 4.8 0.00 0.00 0.00 68 1019.3
20260902153002 14 37 1.6 9.7 0.00 0.00 0.00 71 1019.2
20260902151502 13 60 1.6 6.4 0.00 0.00 0.00 73 1019.1
20260902150003 13 68 1.6 4.8 0.00 0.00 0.00 74 1019.0
20260902144502 13 37 1.6 6.4 0.00 0.00 0.00 76 1018.8
20260902143001 13 93 3.2 9.7 0.00 0.00 0.00 77 1018.7
20260902141505 12 54 0.0 3.2 0.00 0.00 0.00 79 1018.8
20260902140003 12 68 1.6 6.4 0.00 0.00 0.00 79 1018.7
20260902134504 12 28 3.2 6.4 0.00 0.00 0.00 80 1018.7
20260902133003 12 51 3.2 11.3 0.00 0.00 0.00 80 1018.4
20260902131502 12 36 0.0 3.2 0.00 0.00 0.00 81 1018.2
20260902130002 12 25 0.0 3.2 0.00 0.00 0.00 81 1018.3
20260902124503 12 63 0.0 4.8 0.00 0.00 0.00 80 1018.3
20260902123001 12 60 1.6 4.8 0.00 0.00 0.00 81 1018.1
20260902121504 12 33 0.0 4.8 0.00 0.00 0.00 80 1018.2
20260902120002 12 19 1.6 4.8 0.00 0.00 0.00 80 1018.2
20260902114502 12 42 1.6 4.8 0.00 0.00 0.00 80 1018.2
20260902113108 12 61 0.0 4.8 0.00 0.00 0.00 80 1018.1
20260902111604 12 52 1.6 4.8 0.00 0.00 0.00 81 1018.1
20260902110100 12 46 1.6 4.8 0.00 0.00 0.00 80 1018.2
20260902103007 12 55 0.0 4.8 0.00 0.00 0.00 79 1018.3
20260902101501 12 55 0.0 4.8 0.00 0.00 0.00 79 1018.6
20260902100002 13 47 0.0 6.4 0.00 0.00 0.00 79 1018.5
20260902094503 13 36 1.6 4.8 0.00 0.00 0.00 78 1018.6
20260902093117 13 44 0.0 4.8 0.00 0.00 0.00 78 1018.6
20260902091502 13 43 1.6 3.2 0.00 0.00 0.00 78 1018.7
20260902090002 13 30 0.0 6.4 0.00 0.00 0.00 78 1018.5
20260902084508 13 31 1.6 4.8 0.00 0.00 0.00 77 1018.5
20260902083002 13 98 0.0 6.4 0.00 0.00 0.00 77 1018.5
20260902081503 13 49 1.6 4.8 0.00 0.00 0.00 76 1018.3
20260902080002 13 68 1.6 4.8 0.00 0.00 0.00 75 1018.2
20260902074502 13 63 1.6 4.8 0.00 0.00 0.00 75 1018.1
20260902073003 13 87 1.6 4.8 0.00 0.00 0.00 74 1018.1
20260902071506 14 69 3.2 6.4 0.00 0.00 0.00 74 1018.1
20260902070003 14 114 1.6 6.4 0.00 0.00 0.00 73 1018.1
20260902064501 14 51 3.2 9.7 0.00 0.00 0.00 73 1018.2
20260902063002 14 88 1.6 6.4 0.00 0.00 0.00 72 1018.3
20260902061507 15 144 1.6 4.8 0.00 0.00 0.00 71 1018.4
20260902060103 15 37 1.6 9.7 0.00 0.00 0.00 70 1018.4
20260902054505 15 63 1.6 9.7 0.00 0.00 0.00 69 1018.3
20260902053002 15 81 1.6 4.8 0.00 0.00 0.00 69 1018.3
20260902051502 15 60 1.6 6.4 0.00 0.00 0.00 68 1018.3
20260902044502 15 138 1.6 3.2 0.00 0.00 0.00 64 1018.2
20260902043005 16 147 0.0 0.0 0.00 0.00 0.00 63 1018.1
20260902041502 16 141 0.0 1.6 0.00 0.00 0.00 62 1017.8
20260902040006 16 173 0.0 1.6 0.00 0.00 0.00 60 1017.6
20260902034616 16 160 0.0 3.2 0.00 0.00 0.00 59 1017.2
20260902033003 17 168 1.6 4.8 0.00 0.00 0.00 58 1017.2
20260902031503 17 157 0.0 4.8 0.00 0.00 0.00 57 1016.7
20260902024502 18 183 0.0 4.8 0.00 0.00 0.00 54 1016.2
20260902023002 18 206 1.6 8.0 0.00 0.00 0.00 52 1016.2
20260902021507 19 175 1.6 4.8 0.00 0.00 0.00 49 1015.9
20260902020003 20 170 0.0 4.8 0.00 0.00 0.00 48 1016.0
20260902014503 20 187 1.6 8.0 0.00 0.00 0.00 45 1015.8
20260902013003 20 143 1.6 4.8 0.00 0.00 0.00 45 1015.8
20260902011503 21 135 3.2 6.4 0.00 0.00 0.00 44 1015.8
20260902010105 21 183 1.6 4.8 0.00 0.00 0.00 42 1015.9
20260902004501 21 218 1.6 9.7 0.00 0.00 0.00 43 1015.8
20260902003104 21 100 1.6 6.4 0.00 0.00 0.00 44 1015.9
20260902001502 22 212 3.2 9.7 0.00 0.00 0.00 45 1015.9
20260902000006 21 172 1.6 11.3 0.00 0.00 0.00 45 1016.0
20260901234503 22 191 4.8 11.3 0.00 0.00 0.00 44 1016.0
20260901233002 22 148 1.6 9.7 0.00 0.00 0.00 45 1016.1
20260901231504 22 122 1.6 8.0 0.00 0.00 0.00 45 1016.1
20260901230006 22 21 1.6 6.4 0.00 0.00 0.00 45 1016.3
20260901224502 22 185 3.2 8.0 0.00 0.00 0.00 43 1016.4
20260901223003 22 181 3.2 8.0 0.00 0.00 0.00 45 1016.5
20260901221504 22 203 1.6 11.3 0.00 0.00 0.00 46 1016.6
20260901220010 22 196 3.2 8.0 0.00 0.00 0.00 47 1016.6
20260901214501 21 185 3.2 11.3 0.00 0.00 0.00 49 1016.7
20260901213001 21 224 3.2 8.0 0.00 0.00 0.00 48 1016.6
20260901211503 21 158 1.6 14.5 0.00 0.00 0.00 50 1016.8
20260901210002 21 172 4.8 11.3 0.00 0.00 0.00 52 1017.1
20260901203003 20 188 3.2 6.4 0.00 0.00 0.00 54 1017.5
20260901201502 20 189 3.2 6.4 0.00 0.00 0.00 55 1017.5
20260901200008 20 138 3.2 9.7 0.00 0.00 0.00 54 1017.6
20260901194501 19 161 3.2 6.4 0.00 0.00 0.00 56 1017.6
20260901193105 19 71 1.6 12.9 0.00 0.00 0.00 56 1017.6
20260901191503 19 63 3.2 9.7 0.00 0.00 0.00 56 1017.7
20260901190001 18 118 1.6 9.7 0.00 0.00 0.00 59 1017.8
20260901184606 18 187 1.6 14.5 0.00 0.00 0.00 60 1017.9
20260901183002 18 108 1.6 9.7 0.00 0.00 0.00 60 1017.9
20260901181603 17 123 3.2 12.9 0.00 0.00 0.00 60 1018.0